FOX-1D (AO-92) (43137 NORAD) Tracking and Keplerian Element Data

This shows tracking and keplerian element data for the satellite.

Feedback or suggestion? Click here.




ElementValue
Catalog43137
NameFOX-1D (AO-92)
Epoch Orbit6548
Epoch Day77.6027821
Epoch Year2019
RAAN145.5759
Inclination97.4973
Eccentricity0.0008514
Argument of Perigee210.5744
Mean Anonmoly149.4997
Mean Motion15.23256404
Decay Rate1.127E-05
L11 43137U 18004AC 19077.60278210 .00001127 00000-0 50579-4 0 9992
L22 43137 97.4973 145.5759 0008514 210.5744 149.4997 15.23256404 65484

Live tracking and technical data element details for FOX-1D (AO-92) (NORAD 43137). FOX-1D (AO-92) can be tracked NOW for your location showing map with azimuth and elevation plus other details from your city location.

Track the satellite on the map from your city or location and see movement details for azimuth, elevation, latitude, longitude, range, height, and movement on the map or in text.







IsCatalogInMostPopularTable: catalog: 43137, numindb: 944
Update: records affected: 1



GetName: 43137 FOX-1D (AO-92)

Hit Count: updated at: Wed, 20 Mar 2019 05:47:41 GMT